Home > Time Zones > World Clock > Weather > Iran > Tabriz > Past weeks

Flag for Iran Weather past 2 weeks in Tabriz, Iran

Now
79 °F

Scattered clouds.


Feels Like: 78 °F
Forecast: 54 / 78 °F
Wind: 16 mph from West

Location: Tabriz Airport

Current Time: May 26, 2015 at 3:16:05 PM

Latest Report: May 26, 2015 at 2:30 PM


Visibility: N/A

Pressure: 30.04 "Hg

Humidity: 24%

Dew point: 39 °F

Location of TabrizLocation

Historic Weather in Tabriz — Graph

°F

Tabriz temperature yesterday

Maximum temperature yesterday: 79 °F (at 3:00 PM)
Minimum temperature yesterday: 55 °F (at 6:00 AM)
Average temperature yesterday: 66 °F

Past Weeks' High & Low Weather Summary

 TemperatureHumidityPressure
High84 °F (May 20, 4:30 PM)94% (May 12, 5:00 AM)30.24 "Hg (May 12, 5:00 AM)
Low45 °F (May 15, 6:30 AM)15% (May 20, 1:00 PM)29.21 "Hg (May 16, 6:00 AM)
Average65 °F49%30.06 "Hg
* Reported May 11 1:30 PM — May 26 2:00 PM, Tabriz, Weather by CustomWeather, © 2015

Note: Actual official high and low records may vary slightly from our data, if they occured in-between our weather recording intervals... More about our weather records

Advertising

Tabriz weather history for previous 24 hours

 ConditionsComfort  
Time TempWeatherWind HumidityBarometerVisibility
2:00 PM
Tue, May 26
77 °FScattered clouds.9 mph32%30.04 "HgN/A
1:30 PM75 °FScattered clouds.14 mph31%30.07 "HgN/A
12:50 PM75 °FPassing clouds.7 mph36%30.07 "HgN/A
12:30 PM73 °FPassing clouds.7 mph38%30.07 "HgN/A
12:00 PM72 °FPassing clouds.9 mph41%30.07 "HgN/A
11:30 AM72 °FPassing clouds.7 mph41%30.09 "HgN/A
10:30 AM68 °FPassing clouds.5 mph46%30.09 "HgN/A
10:00 AM68 °FSunny.2 mph46%30.09 "Hg10 mi
9:20 AM66 °FSunny.2 mph49%30.09 "Hg10 mi
9:00 AM66 °FSunny.No wind49%30.09 "Hg10 mi
8:20 AM63 °FSunny.9 mph59%30.09 "Hg10 mi
8:00 AM59 °FSunny.5 mph63%30.07 "Hg10 mi
7:30 AM57 °FClear.5 mph67%30.07 "Hg10 mi
7:00 AM55 °FPassing clouds.5 mph67%30.07 "HgN/A
6:30 AM50 °FPassing clouds.7 mph82%30.07 "HgN/A
6:00 AM52 °FPassing clouds.7 mph77%30.07 "HgN/A
5:30 AM54 °FPassing clouds.7 mph72%30.07 "HgN/A
4:50 AM52 °FPassing clouds.5 mph82%30.07 "HgN/A
4:30 AM52 °FPassing clouds.5 mph82%30.07 "HgN/A
4:00 AM52 °FPassing clouds.No wind77%30.07 "HgN/A
3:30 AM54 °FPassing clouds.No wind77%30.07 "HgN/A
3:00 AM54 °FPassing clouds.2 mph77%30.07 "HgN/A
2:30 AM57 °FPassing clouds.5 mph67%30.07 "HgN/A
2:00 AM55 °FPassing clouds.2 mph72%30.07 "HgN/A
1:30 AM59 °FPassing clouds.5 mph68%30.07 "HgN/A
1:00 AM55 °FPassing clouds.5 mph77%30.07 "HgN/A
12:30 AM57 °FPassing clouds.5 mph72%30.07 "HgN/A
12:00 AM59 °FPassing clouds.2 mph68%30.07 "HgN/A
11:30 PM
Mon, May 25
59 °FPassing clouds.5 mph72%30.09 "HgN/A
11:00 PM61 °FPassing clouds.5 mph63%30.09 "HgN/A
10:30 PM61 °FPassing clouds.No wind68%30.09 "HgN/A
10:00 PM61 °FScattered clouds.2 mph68%30.09 "HgN/A
9:30 PM63 °FScattered showers. Scattered clouds.5 mph59%30.09 "Hg5 mi
9:00 PM63 °FScattered showers. Broken clouds.7 mph59%30.09 "Hg5 mi
8:30 PM63 °FSprinkles. Scattered clouds.12 mph64%30.09 "Hg5 mi
8:00 PM64 °FSprinkles. Broken clouds.22 mph56%30.07 "HgN/A
7:30 PM66 °FScattered showers. Broken clouds.26 mph46%30.07 "HgN/A
7:00 PM68 °FSprinkles. Broken clouds.21 mph43%30.07 "Hg5 mi
6:30 PM70 °FScattered showers. Broken clouds.22 mph35%30.04 "Hg5 mi
6:00 PM72 °FThunderstorms. Scattered clouds.21 mph33%30.01 "Hg6 mi
5:30 PM72 °FThunderstorms. Scattered clouds.16 mph36%30.01 "Hg6 mi
5:00 PM73 °FThunderstorms. Scattered clouds.16 mph31%30.01 "Hg6 mi
4:30 PM79 °FScattered showers. Scattered clouds.14 mph26%30.01 "HgN/A
3:50 PM79 °FScattered clouds.9 mph26%29.98 "HgN/A
3:30 PM79 °FPassing clouds.14 mph28%30.01 "HgN/A
3:00 PM79 °FPassing clouds.14 mph28%30.01 "HgN/A
Weather by CustomWeather, © 2015

See weather overviewHow to use our weather pages